Redmond, OR

6:44 PM PDT on April 30, 2017 (GMT -0700)
Roberts Field Airport

Weather History for KRDM - October, 2012

Change the Weather History Date:

Thursday, October 18, 2012

  Actual Average Record
Temperature  
Mean Temperature 51 °F 47 °F  
Max Temperature 75 °F 63 °F 82 °F (1977)
Min Temperature 26 °F 31 °F 16 °F (1976)
Degree Days  
Heating Degree Days 14 18  
Month to date heating degree days 289 279  
Since 1 July heating degree days 555 678  
Cooling Degree Days 0 0  
Month to date cooling degree days 0 0  
Year to date cooling degree days 206 222  
Growing Degree Days 2 (Base 50)    
Moisture  
Dew Point 31 °F    
Average Humidity 54    
Maximum Humidity 92    
Minimum Humidity 16    
Precipitation  
Precipitation 0.00 in 0.02 in 0.22 in (2007)
Month to date precipitation 0.95 0.32  
Year to date precipitation 8.65 6.46  
Sea Level Pressure  
Sea Level Pressure 30.10 in    
Wind  
Wind Speed 3 mph (SSW)    
Max Wind Speed 12 mph    
Max Gust Speed 17 mph    
Visibility 10 miles    
Events      
T = Trace of Precipitation, MM = Missing Value Source: NWS Daily Summary

Daily Weather History Graph

Daily Weather History Graph

Search for Another Location

Airport or City:

Trip Planner

Search our weather history database for the weather conditions in past years. The results will help you decide how hot, cold, wet, or windy it might be!

Date:

Astronomy

Oct. 18, 2012 Rise Set
Actual Time 7:24 AM PDT 6:14 PM PDT
Civil Twilight 6:54 AM PDT 6:43 PM PDT
Nautical Twilight 6:20 AM PDT 7:17 PM PDT
Astronomical Twilight 5:47 AM PDT 7:50 PM PDT
Moon 11:19 AM PDT (10/18) 8:46 PM PDT (10/18)
Length of Visible Light 11h 49m
Length of Day
10h 50m
Waxing Crescent, 15% of the Moon is Illuminated
Oct 18
Waxing Crescent
Oct 21
First Quarter
Oct 29
Full
Nov 6
Last Quarter
Nov 13
New

Hourly Weather History & Observations

Time (PDT) Temp. Windchill Dew Point Humidity Pressure Visibility Wind Dir Wind Speed Gust Speed Precip Events Conditions
12:56 AM 34.0 °F 31.0 °F 28.9 °F 82% 30.27 in 10.0 mi SSE 3.5 mph - N/A   Clear
1:56 AM 33.1 °F - 28.0 °F 82% 30.28 in 10.0 mi Calm Calm - N/A   Clear
3:56 AM 32.0 °F - 28.0 °F 85% 30.25 in 10.0 mi Calm Calm - N/A   Clear
4:56 AM 28.0 °F - 26.1 °F 92% 30.23 in 10.0 mi Calm Calm - N/A   Clear
5:56 AM 28.9 °F - 27.0 °F 92% 30.24 in 10.0 mi Calm Calm - N/A   Clear
7:56 AM 30.9 °F - 28.0 °F 89% 30.25 in 10.0 mi Calm Calm - N/A   Clear
9:56 AM 51.1 °F - 32.0 °F 48% 30.18 in 10.0 mi Calm Calm - N/A   Clear
10:56 AM 57.9 °F - 30.9 °F 36% 30.17 in 10.0 mi Calm Calm - N/A   Clear
11:56 AM 63.0 °F - 28.9 °F 28% 30.14 in 10.0 mi Calm Calm - N/A   Clear
12:56 PM 68.0 °F - 25.0 °F 20% 30.09 in 10.0 mi SSE 10.4 mph - N/A   Clear
1:56 PM 73.0 °F - 24.1 °F 16% 30.04 in 10.0 mi South 6.9 mph - N/A   Clear
2:56 PM 75.0 °F - 26.1 °F 16% 30.00 in 10.0 mi WNW 5.8 mph - N/A   Clear
3:56 PM 75.0 °F - 27.0 °F 17% 29.98 in 10.0 mi SW 3.5 mph - N/A   Clear
4:56 PM 73.9 °F - 28.9 °F 19% 29.97 in 10.0 mi SSW 9.2 mph - N/A   Clear
5:56 PM 69.1 °F - 32.0 °F 25% 29.96 in 10.0 mi WSW 4.6 mph - N/A   Clear
6:56 PM 59.0 °F - 39.9 °F 49% 29.98 in 10.0 mi Calm Calm - N/A   Clear
7:56 PM 53.1 °F - 39.9 °F 61% 29.99 in 10.0 mi Calm Calm - N/A   Clear
9:56 PM 55.9 °F - 37.9 °F 51% 29.96 in 10.0 mi SW 3.5 mph - N/A   Clear
10:56 PM 53.1 °F - 37.9 °F 57% 29.96 in 10.0 mi Calm Calm - N/A   Clear
11:56 PM 51.1 °F - 37.9 °F 61% 29.99 in 10.0 mi Calm Calm - N/A   Clear